Year,Month,Day,Hour,Minute,Value (Times are PST for temperature in C)
2010,08,17,00,00,22.60
2010,08,17,00,01,22.60
2010,08,17,00,02,22.70
2010,08,17,00,03,22.70
2010,08,17,00,04,22.70
2010,08,17,00,05,22.70
2010,08,17,00,06,22.60
2010,08,17,00,07,22.50
2010,08,17,00,08,22.40
2010,08,17,00,09,22.30
2010,08,17,00,10,22.30
2010,08,17,00,11,22.20
2010,08,17,00,12,22.10
2010,08,17,00,13,22.00
2010,08,17,00,14,21.90
2010,08,17,00,15,21.90
2010,08,17,00,16,21.80
2010,08,17,00,17,21.80
2010,08,17,00,18,21.80
2010,08,17,00,19,21.80
2010,08,17,00,20,21.90
2010,08,17,00,21,22.00
2010,08,17,00,22,22.00
2010,08,17,00,23,22.10
2010,08,17,00,24,22.20
2010,08,17,00,25,22.20
2010,08,17,00,26,22.30
2010,08,17,00,27,22.30
2010,08,17,00,28,22.30
2010,08,17,00,29,22.40
2010,08,17,00,30,22.40
2010,08,17,00,31,22.40
2010,08,17,00,32,22.40
2010,08,17,00,33,22.40
2010,08,17,00,34,22.40
2010,08,17,00,35,22.40
2010,08,17,00,36,22.40
2010,08,17,00,37,22.40
2010,08,17,00,38,22.40
2010,08,17,00,39,22.40
2010,08,17,00,40,22.30
2010,08,17,00,41,22.30
2010,08,17,00,42,22.30
2010,08,17,00,43,22.40
2010,08,17,00,44,22.40
2010,08,17,00,45,22.40
2010,08,17,00,46,22.40
2010,08,17,00,47,22.50
2010,08,17,00,48,22.50
2010,08,17,00,49,22.60
2010,08,17,00,50,22.60
2010,08,17,00,51,22.60
2010,08,17,00,52,22.60
2010,08,17,00,53,22.60
2010,08,17,00,54,22.60
2010,08,17,00,55,22.60
2010,08,17,00,56,22.50
2010,08,17,00,57,22.50
2010,08,17,00,58,22.50
2010,08,17,00,59,22.40
2010,08,17,01,00,22.40
2010,08,17,01,01,22.30
2010,08,17,01,02,22.30
2010,08,17,01,03,22.20
2010,08,17,01,04,22.20
2010,08,17,01,05,22.10
2010,08,17,01,06,22.10
2010,08,17,01,07,22.10
2010,08,17,01,08,22.00
2010,08,17,01,09,22.10
2010,08,17,01,10,22.10
2010,08,17,01,11,22.10
2010,08,17,01,12,22.20
2010,08,17,01,13,22.20
2010,08,17,01,14,22.30
2010,08,17,01,15,22.30
2010,08,17,01,16,22.40
2010,08,17,01,17,22.50
2010,08,17,01,18,22.60
2010,08,17,01,19,22.60
2010,08,17,01,20,22.70
2010,08,17,01,21,22.70
2010,08,17,01,22,22.80
2010,08,17,01,23,22.80
2010,08,17,01,24,22.80
2010,08,17,01,25,22.80
2010,08,17,01,26,22.80
2010,08,17,01,27,22.90
2010,08,17,01,28,23.00
2010,08,17,01,29,23.10
2010,08,17,01,30,23.20
2010,08,17,01,31,23.20
2010,08,17,01,32,23.30
2010,08,17,01,33,23.40
2010,08,17,01,34,23.50
2010,08,17,01,35,23.60
2010,08,17,01,36,23.60
2010,08,17,01,37,23.70
2010,08,17,01,38,23.70
2010,08,17,01,39,23.70
2010,08,17,01,40,23.70
2010,08,17,01,41,23.70
2010,08,17,01,42,23.70
2010,08,17,01,43,23.70
2010,08,17,01,44,23.70
2010,08,17,01,45,23.80
2010,08,17,01,46,23.80
2010,08,17,01,47,23.80
2010,08,17,01,48,23.80
2010,08,17,01,49,23.80
2010,08,17,01,50,23.80
2010,08,17,01,51,23.80
2010,08,17,01,52,23.80
2010,08,17,01,53,23.90
2010,08,17,01,54,23.90
2010,08,17,01,55,23.90
2010,08,17,01,56,24.00
2010,08,17,01,57,24.00
2010,08,17,01,58,24.00
2010,08,17,01,59,24.00
2010,08,17,02,00,24.00
2010,08,17,02,01,24.00
2010,08,17,02,02,24.00
2010,08,17,02,03,24.00
2010,08,17,02,04,23.90
2010,08,17,02,05,23.90
2010,08,17,02,06,23.90
2010,08,17,02,07,23.80
2010,08,17,02,08,23.80
2010,08,17,02,09,23.80
2010,08,17,02,10,23.80
2010,08,17,02,11,23.80
2010,08,17,02,12,23.80
2010,08,17,02,13,23.80
2010,08,17,02,14,23.80
2010,08,17,02,15,23.80
2010,08,17,02,16,23.80
2010,08,17,02,17,23.80
2010,08,17,02,18,23.80
2010,08,17,02,19,23.80
2010,08,17,02,20,23.80
2010,08,17,02,21,23.80
2010,08,17,02,22,23.80
2010,08,17,02,23,23.80
2010,08,17,02,24,23.80
2010,08,17,02,25,23.80
2010,08,17,02,26,23.80
2010,08,17,02,27,23.70
2010,08,17,02,28,23.70
2010,08,17,02,29,23.70
2010,08,17,02,30,23.60
2010,08,17,02,31,23.60
2010,08,17,02,32,23.60
2010,08,17,02,33,23.50
2010,08,17,02,34,23.50
2010,08,17,02,35,23.50
2010,08,17,02,36,23.40
2010,08,17,02,37,23.40
2010,08,17,02,38,23.40
2010,08,17,02,39,23.40
2010,08,17,02,40,23.30
2010,08,17,02,41,23.30
2010,08,17,02,42,23.20
2010,08,17,02,43,23.20
2010,08,17,02,44,23.20
2010,08,17,02,45,23.10
2010,08,17,02,46,23.10
2010,08,17,02,47,23.00
2010,08,17,02,48,23.00
2010,08,17,02,49,23.00
2010,08,17,02,50,22.90
2010,08,17,02,51,22.90
2010,08,17,02,52,22.90
2010,08,17,02,53,22.90
2010,08,17,02,54,22.90
2010,08,17,02,55,22.80
2010,08,17,02,56,22.80
2010,08,17,02,57,22.80
2010,08,17,02,58,22.80
2010,08,17,02,59,22.70
2010,08,17,03,00,22.70
2010,08,17,03,01,22.70
2010,08,17,03,02,22.70
2010,08,17,03,03,22.70
2010,08,17,03,06,22.60
2010,08,17,03,07,22.60
2010,08,17,03,08,22.60
2010,08,17,03,09,22.70
2010,08,17,03,10,22.70
2010,08,17,03,11,22.70
2010,08,17,03,12,22.70
2010,08,17,03,13,22.70
2010,08,17,03,14,22.70
2010,08,17,03,15,22.70
2010,08,17,03,16,22.70
2010,08,17,03,17,22.70
2010,08,17,03,18,22.70
2010,08,17,03,19,22.70
2010,08,17,03,20,22.70
2010,08,17,03,21,22.70
2010,08,17,03,22,22.70
2010,08,17,03,23,22.60
2010,08,17,03,24,22.60
2010,08,17,03,25,22.60
2010,08,17,03,26,22.60
2010,08,17,03,27,22.60
2010,08,17,03,28,22.60
2010,08,17,03,29,22.60
2010,08,17,03,30,22.60
2010,08,17,03,31,22.50
2010,08,17,03,32,22.50
2010,08,17,03,33,22.50
2010,08,17,03,34,22.50
2010,08,17,03,35,22.50
2010,08,17,03,36,22.50
2010,08,17,03,37,22.50
2010,08,17,03,38,22.50
2010,08,17,03,39,22.40
2010,08,17,03,40,22.40
2010,08,17,03,41,22.40
2010,08,17,03,42,22.40
2010,08,17,03,43,22.40
2010,08,17,03,44,22.40
2010,08,17,03,45,22.40
2010,08,17,03,46,22.30
2010,08,17,03,47,22.30
2010,08,17,03,48,22.30
2010,08,17,03,49,22.20
2010,08,17,03,50,22.20
2010,08,17,03,51,22.20
2010,08,17,03,52,22.10
2010,08,17,03,53,22.10
2010,08,17,03,54,22.10
2010,08,17,03,55,22.10
2010,08,17,03,56,22.10
2010,08,17,03,57,22.10
2010,08,17,03,58,22.10
2010,08,17,03,59,22.10
2010,08,17,04,00,22.00
2010,08,17,04,01,22.00
2010,08,17,04,02,22.00
2010,08,17,04,03,22.00
2010,08,17,04,04,22.00
2010,08,17,04,05,21.90
2010,08,17,04,06,21.90
2010,08,17,04,07,21.90
2010,08,17,04,08,21.90
2010,08,17,04,09,22.00
2010,08,17,04,10,22.00
2010,08,17,04,11,22.00
2010,08,17,04,12,22.00
2010,08,17,04,13,22.00
2010,08,17,04,14,22.00
2010,08,17,04,15,22.10
2010,08,17,04,16,22.10
2010,08,17,04,17,22.10
2010,08,17,04,18,22.10
2010,08,17,04,19,22.10
2010,08,17,04,20,22.10
2010,08,17,04,21,22.20
2010,08,17,04,22,22.10
2010,08,17,04,23,22.10
2010,08,17,04,24,22.10
2010,08,17,04,25,22.10
2010,08,17,04,26,22.10
2010,08,17,04,27,22.00
2010,08,17,04,28,22.00
2010,08,17,04,29,22.00
2010,08,17,04,30,22.00
2010,08,17,04,31,21.90
2010,08,17,04,32,21.90
2010,08,17,04,33,21.90
2010,08,17,04,34,21.90
2010,08,17,04,35,21.80
2010,08,17,04,36,21.80
2010,08,17,04,37,21.80
2010,08,17,04,38,21.80
2010,08,17,04,39,21.80
2010,08,17,04,40,21.80
2010,08,17,04,41,21.80
2010,08,17,04,42,21.80
2010,08,17,04,43,21.80
2010,08,17,04,44,21.80
2010,08,17,04,45,21.80
2010,08,17,04,46,21.80
2010,08,17,04,47,21.80
2010,08,17,04,48,21.80
2010,08,17,04,49,21.80
2010,08,17,04,50,21.80
2010,08,17,04,51,21.80
2010,08,17,04,52,21.80
2010,08,17,04,53,21.80
2010,08,17,04,54,21.80
2010,08,17,04,55,21.80
2010,08,17,04,56,21.80
2010,08,17,04,57,21.90
2010,08,17,04,58,21.90
2010,08,17,04,59,21.90
2010,08,17,05,00,21.90
2010,08,17,05,01,21.90
2010,08,17,05,02,21.90
2010,08,17,05,03,21.80
2010,08,17,05,04,21.80
2010,08,17,05,05,21.80
2010,08,17,05,06,21.80
2010,08,17,05,07,21.80
2010,08,17,05,08,21.70
2010,08,17,05,09,21.70
2010,08,17,05,10,21.70
2010,08,17,05,11,21.70
2010,08,17,05,12,21.70
2010,08,17,05,13,21.60
2010,08,17,05,14,21.60
2010,08,17,05,15,21.50
2010,08,17,05,16,21.50
2010,08,17,05,17,21.40
2010,08,17,05,18,21.40
2010,08,17,05,19,21.40
2010,08,17,05,20,21.40
2010,08,17,05,21,21.30
2010,08,17,05,22,21.30
2010,08,17,05,23,21.30
2010,08,17,05,24,21.20
2010,08,17,05,25,21.20
2010,08,17,05,26,21.20
2010,08,17,05,27,21.10
2010,08,17,05,28,21.10
2010,08,17,05,29,21.10
2010,08,17,05,30,21.10
2010,08,17,05,31,21.10
2010,08,17,05,32,21.10
2010,08,17,05,33,21.10
2010,08,17,05,34,21.10
2010,08,17,05,35,21.10
2010,08,17,05,36,21.10
2010,08,17,05,37,21.10
2010,08,17,05,38,21.10
2010,08,17,05,39,21.10
2010,08,17,05,40,21.10
2010,08,17,05,41,21.10
2010,08,17,05,42,21.10
2010,08,17,05,43,21.10
2010,08,17,12,13,20.80
2010,08,17,12,14,20.80
2010,08,17,12,15,20.80
2010,08,17,12,16,20.70
2010,08,17,12,17,20.70
2010,08,17,12,18,20.70
2010,08,17,12,19,20.70
2010,08,17,12,20,20.80
2010,08,17,12,21,20.80
2010,08,17,12,22,20.80
2010,08,17,12,23,20.80
2010,08,17,12,24,20.70
2010,08,17,12,25,20.70
2010,08,17,12,26,20.70
2010,08,17,12,27,20.70
2010,08,17,12,28,20.80
2010,08,17,12,29,20.90
2010,08,17,12,30,20.90
2010,08,17,12,31,20.80
2010,08,17,12,32,20.80
2010,08,17,12,33,20.80
2010,08,17,12,34,20.80
2010,08,17,12,35,20.80
2010,08,17,12,36,20.90
2010,08,17,12,37,20.90
2010,08,17,12,38,21.00
2010,08,17,12,39,21.00
2010,08,17,12,40,21.10
2010,08,17,12,41,21.10
2010,08,17,12,42,21.20
2010,08,17,12,43,21.20
2010,08,17,12,44,21.30
2010,08,17,12,45,21.30
2010,08,17,12,46,21.40
2010,08,17,12,47,21.40
2010,08,17,12,48,21.40
2010,08,17,12,49,21.50
2010,08,17,12,50,21.60
2010,08,17,12,51,21.60
2010,08,17,12,52,21.60
2010,08,17,12,53,21.60
2010,08,17,12,54,21.60
2010,08,17,12,55,21.60
2010,08,17,12,56,21.60
2010,08,17,12,57,21.60
2010,08,17,12,58,21.60
2010,08,17,12,59,21.70
2010,08,17,13,00,21.70
2010,08,17,13,01,21.70
2010,08,17,13,02,21.70
2010,08,17,13,03,21.80
2010,08,17,13,04,21.90
2010,08,17,13,05,21.90
2010,08,17,13,06,22.00
2010,08,17,13,07,21.90
2010,08,17,13,08,22.00
2010,08,17,13,09,22.00
2010,08,17,13,10,22.10
2010,08,17,13,11,22.20
2010,08,17,13,12,22.20
2010,08,17,13,13,22.30
2010,08,17,13,14,22.20
2010,08,17,13,15,22.20
2010,08,17,13,16,22.10
2010,08,17,13,17,22.00
2010,08,17,13,18,22.00
2010,08,17,13,19,22.00
2010,08,17,13,20,22.00
2010,08,17,13,21,22.10
2010,08,17,13,22,22.10
2010,08,17,13,23,22.10
2010,08,17,13,24,22.10
2010,08,17,13,25,22.10
2010,08,17,13,26,22.10
2010,08,17,13,27,22.10
2010,08,17,13,28,22.20
2010,08,17,13,29,22.20
2010,08,17,13,30,22.20
2010,08,17,13,31,22.30
2010,08,17,13,32,22.30
2010,08,17,13,33,22.30
2010,08,17,13,34,22.30
2010,08,17,13,35,22.30
2010,08,17,13,36,22.20
2010,08,17,13,37,22.20
2010,08,17,13,38,22.20
2010,08,17,13,39,22.20
2010,08,17,13,40,22.20
2010,08,17,13,41,22.30
2010,08,17,13,42,22.30
2010,08,17,13,43,22.30
2010,08,17,13,44,22.30
2010,08,17,13,45,22.30
2010,08,17,13,46,22.30
2010,08,17,13,47,22.30
2010,08,17,13,48,22.30
2010,08,17,13,49,22.30
2010,08,17,13,50,22.40
2010,08,17,13,51,22.60
2010,08,17,13,52,22.60
2010,08,17,13,53,22.70
2010,08,17,13,54,22.70
2010,08,17,13,55,22.80
2010,08,17,13,56,22.80
2010,08,17,13,57,22.80
2010,08,17,13,58,22.80
2010,08,17,13,59,22.80
2010,08,17,14,00,22.80
2010,08,17,14,01,22.80
2010,08,17,14,02,22.70
2010,08,17,14,03,22.60
2010,08,17,14,04,22.50
2010,08,17,14,05,22.50
2010,08,17,14,06,22.50
2010,08,17,14,07,22.50
2010,08,17,14,08,22.50
2010,08,17,14,09,22.60
2010,08,17,14,10,22.60
2010,08,17,14,11,22.60
2010,08,17,14,12,22.60
2010,08,17,14,13,22.70
2010,08,17,14,14,22.70
2010,08,17,14,15,22.70
2010,08,17,14,16,22.70
2010,08,17,14,17,22.70
2010,08,17,14,18,22.80
2010,08,17,14,19,22.80
2010,08,17,14,20,22.80
2010,08,17,14,21,22.90
2010,08,17,14,22,23.00
2010,08,17,14,23,23.10
2010,08,17,14,24,23.10
2010,08,17,14,25,23.20
2010,08,17,14,26,23.20
2010,08,17,14,27,23.20
2010,08,17,14,28,23.20
2010,08,17,14,29,23.10
2010,08,17,14,30,23.10
2010,08,17,14,31,23.10
2010,08,17,14,32,23.10
2010,08,17,14,33,23.00
2010,08,17,14,34,23.00
2010,08,17,14,35,22.90
2010,08,17,14,36,22.80
2010,08,17,14,37,22.80
2010,08,17,14,38,22.80
2010,08,17,14,39,22.90
2010,08,17,14,40,22.90
2010,08,17,14,41,22.90
2010,08,17,14,42,23.00
2010,08,17,14,43,23.00
2010,08,17,14,44,23.00
2010,08,17,14,45,23.00
2010,08,17,14,46,22.90
2010,08,17,14,47,22.80
2010,08,17,14,48,22.80
2010,08,17,14,49,22.80
2010,08,17,14,50,22.70
2010,08,17,14,51,22.70
2010,08,17,14,52,22.80
2010,08,17,14,53,22.70
2010,08,17,14,54,22.70
2010,08,17,14,55,22.80
2010,08,17,14,56,22.80
2010,08,17,14,57,22.80
2010,08,17,14,58,22.90
2010,08,17,14,59,22.90
2010,08,17,15,00,22.90
2010,08,17,15,01,22.90
2010,08,17,15,02,22.90
2010,08,17,15,03,22.80
2010,08,17,15,04,22.80
2010,08,17,15,05,22.80
2010,08,17,15,06,22.80
2010,08,17,15,07,22.80
2010,08,17,15,08,22.80
2010,08,17,15,09,22.80
2010,08,17,15,10,22.80
2010,08,17,15,11,22.80
2010,08,17,15,12,22.90
2010,08,17,15,13,22.90
2010,08,17,15,14,23.00
2010,08,17,15,15,23.00
2010,08,17,15,16,23.10
2010,08,17,15,17,23.20
2010,08,17,15,18,23.20
2010,08,17,15,19,23.20
2010,08,17,15,20,23.30
2010,08,17,15,21,23.30
2010,08,17,15,22,23.30
2010,08,17,15,23,23.30
2010,08,17,15,24,23.40
2010,08,17,15,25,23.40
2010,08,17,15,26,23.40
2010,08,17,15,27,23.40
2010,08,17,15,28,23.40
2010,08,17,15,29,23.40
2010,08,17,15,30,23.40
2010,08,17,15,31,23.40
2010,08,17,15,32,23.40
2010,08,17,15,33,23.40
2010,08,17,15,34,23.40
2010,08,17,15,35,23.50
2010,08,17,15,36,23.60
2010,08,17,15,37,23.60
2010,08,17,15,38,23.60
2010,08,17,15,39,23.60
2010,08,17,15,40,23.60
2010,08,17,15,41,23.60
2010,08,17,15,42,23.50
2010,08,17,15,43,23.50
2010,08,17,15,44,23.50
2010,08,17,15,45,23.50
2010,08,17,15,46,23.40
2010,08,17,15,47,23.40
2010,08,17,15,48,23.40
2010,08,17,15,49,23.40
2010,08,17,15,50,23.40
2010,08,17,15,51,23.50
2010,08,17,15,52,23.50
2010,08,17,15,53,23.50
2010,08,17,15,54,23.40
2010,08,17,15,55,23.40
2010,08,17,15,56,23.30
2010,08,17,15,57,23.30
2010,08,17,15,58,23.30
2010,08,17,15,59,23.30
2010,08,17,16,00,23.30
2010,08,17,16,01,23.30
2010,08,17,16,02,23.30
2010,08,17,16,03,23.30
2010,08,17,16,04,23.40
2010,08,17,16,05,23.40
2010,08,17,16,06,23.40
2010,08,17,16,07,23.40
2010,08,17,16,08,23.40
2010,08,17,16,09,23.40
2010,08,17,16,10,23.50
2010,08,17,16,11,23.50
2010,08,17,16,12,23.60
2010,08,17,16,13,23.60
2010,08,17,16,14,23.60
2010,08,17,16,15,23.70
2010,08,17,16,16,23.70
2010,08,17,16,17,23.70
2010,08,17,16,18,23.70
2010,08,17,16,19,23.70
2010,08,17,16,20,23.70
2010,08,17,16,21,23.80
2010,08,17,16,22,23.80
2010,08,17,16,23,23.80
2010,08,17,16,24,23.80
2010,08,17,16,25,23.80
2010,08,17,16,26,23.80
2010,08,17,16,27,23.80
2010,08,17,16,28,23.80
2010,08,17,16,29,23.80
2010,08,17,16,30,23.90
2010,08,17,16,31,24.00
2010,08,17,16,32,24.00
2010,08,17,16,33,24.10
2010,08,17,16,34,24.10
2010,08,17,16,35,24.10
2010,08,17,16,36,24.20
2010,08,17,16,37,24.20
2010,08,17,16,38,24.20
2010,08,17,16,39,24.30
2010,08,17,16,40,24.30
2010,08,17,16,41,24.30
2010,08,17,16,42,24.30
2010,08,17,16,43,24.30
2010,08,17,16,44,24.30
2010,08,17,16,45,24.30
2010,08,17,16,46,24.30
2010,08,17,16,47,24.40
2010,08,17,16,48,24.40
2010,08,17,16,49,24.40
2010,08,17,16,50,24.40
2010,08,17,16,51,24.50
2010,08,17,16,52,24.50
2010,08,17,16,53,24.60
2010,08,17,16,54,24.60
2010,08,17,16,55,24.60
2010,08,17,16,56,24.70
2010,08,17,16,57,24.70
2010,08,17,16,58,24.70
2010,08,17,16,59,24.70
2010,08,17,17,00,24.60
2010,08,17,17,01,24.60
2010,08,17,17,02,24.60
2010,08,17,17,03,24.60
2010,08,17,17,04,24.70
2010,08,17,17,05,24.70
2010,08,17,17,06,24.60
2010,08,17,17,07,24.60
2010,08,17,17,08,24.50
2010,08,17,17,09,24.50
2010,08,17,17,10,24.50
2010,08,17,17,11,24.50
2010,08,17,17,12,24.50
2010,08,17,17,13,24.60
2010,08,17,17,14,24.50
2010,08,17,17,15,24.50
2010,08,17,17,16,24.50
2010,08,17,17,17,24.50
2010,08,17,17,18,24.60
2010,08,17,17,19,24.60
2010,08,17,17,20,24.60
2010,08,17,17,21,24.60
2010,08,17,17,22,24.60
2010,08,17,17,23,24.60
2010,08,17,17,24,24.50
2010,08,17,17,25,24.50
2010,08,17,17,26,24.40
2010,08,17,17,27,24.40
2010,08,17,17,28,24.40
2010,08,17,17,29,24.40
2010,08,17,17,30,24.40
2010,08,17,17,31,24.50
2010,08,17,17,32,24.50
2010,08,17,17,33,24.50
2010,08,17,17,34,24.40
2010,08,17,17,35,24.40
2010,08,17,17,36,24.40
2010,08,17,17,37,24.40
2010,08,17,17,38,24.50
2010,08,17,17,39,24.50
2010,08,17,17,40,24.50
2010,08,17,17,41,24.50
2010,08,17,17,42,24.50
2010,08,17,17,43,24.40
2010,08,17,17,44,24.40
2010,08,17,17,45,24.40
2010,08,17,17,46,24.40
2010,08,17,17,47,24.40
2010,08,17,17,48,24.40
2010,08,17,17,49,24.40
2010,08,17,17,50,24.40
2010,08,17,17,51,24.50
2010,08,17,17,52,24.50
2010,08,17,17,53,24.50
2010,08,17,17,54,24.60
2010,08,17,17,55,24.60
2010,08,17,17,56,24.60
2010,08,17,17,57,24.60
2010,08,17,17,58,24.70
2010,08,17,17,59,24.80
2010,08,17,18,00,24.80
2010,08,17,18,01,24.80
2010,08,17,18,02,24.80
2010,08,17,18,03,24.90
2010,08,17,18,04,24.90
2010,08,17,18,05,24.90
2010,08,17,18,06,25.00
2010,08,17,18,07,25.00
2010,08,17,18,08,25.10
2010,08,17,18,09,25.10
2010,08,17,18,10,25.10
2010,08,17,18,11,25.10
2010,08,17,18,12,25.10
2010,08,17,18,13,25.10
2010,08,17,18,14,25.10
2010,08,17,18,15,25.10
2010,08,17,18,16,25.10
2010,08,17,18,17,25.20
2010,08,17,18,18,25.20
2010,08,17,18,19,25.10
2010,08,17,18,20,25.10
2010,08,17,18,21,25.10
2010,08,17,18,22,25.10
2010,08,17,18,23,25.10
2010,08,17,18,24,25.10
2010,08,17,18,25,25.10
2010,08,17,18,26,25.10
2010,08,17,18,27,25.20
2010,08,17,18,28,25.20
2010,08,17,18,29,25.20
2010,08,17,18,30,25.20
2010,08,17,18,31,25.20
2010,08,17,18,32,25.30
2010,08,17,18,33,25.30
2010,08,17,18,34,25.30
2010,08,17,18,35,25.30
2010,08,17,18,36,25.30
2010,08,17,18,37,25.30
2010,08,17,18,38,25.30
2010,08,17,18,39,25.30
2010,08,17,18,40,25.30
2010,08,17,18,41,25.30
2010,08,17,18,42,25.30
2010,08,17,18,43,25.30
2010,08,17,18,44,25.30
2010,08,17,18,45,25.30
2010,08,17,18,46,25.30
2010,08,17,18,47,25.30
2010,08,17,18,48,25.30
2010,08,17,18,49,25.30
2010,08,17,18,50,25.30
2010,08,17,18,51,25.30
2010,08,17,18,52,25.30
2010,08,17,18,53,25.30
2010,08,17,18,54,25.30
2010,08,17,18,55,25.30
2010,08,17,18,56,25.30
2010,08,17,18,57,25.30
2010,08,17,18,58,25.30
2010,08,17,18,59,25.30
2010,08,17,19,00,25.30
2010,08,17,19,01,25.30
2010,08,17,19,02,25.30
2010,08,17,19,03,25.30
2010,08,17,19,04,25.30
2010,08,17,19,05,25.30
2010,08,17,19,06,25.30
2010,08,17,19,07,25.30
2010,08,17,19,08,25.30
2010,08,17,19,09,25.30
2010,08,17,19,10,25.30
2010,08,17,19,11,25.30
2010,08,17,19,12,25.30
2010,08,17,19,13,25.40
2010,08,17,19,14,25.40
2010,08,17,19,15,25.40
2010,08,17,19,16,25.40
2010,08,17,19,17,25.30
2010,08,17,19,18,25.30
2010,08,17,19,19,25.30
2010,08,17,19,20,25.30
2010,08,17,19,21,25.30
2010,08,17,19,22,25.30
2010,08,17,19,23,25.30
2010,08,17,19,24,25.30
2010,08,17,19,25,25.30
2010,08,17,19,26,25.30
2010,08,17,19,27,25.30
2010,08,17,19,28,25.30
2010,08,17,19,29,25.30
2010,08,17,19,30,25.30
2010,08,17,19,31,25.30
2010,08,17,19,32,25.30
2010,08,17,19,33,25.30
2010,08,17,19,34,25.30
2010,08,17,19,35,25.30
2010,08,17,19,36,25.30
2010,08,17,19,37,25.30
2010,08,17,19,38,25.30
2010,08,17,19,39,25.40
2010,08,17,19,40,25.40
2010,08,17,19,41,25.40
2010,08,17,19,42,25.40
2010,08,17,19,43,25.40
2010,08,17,19,44,25.40
2010,08,17,19,45,25.40
2010,08,17,19,46,25.40
2010,08,17,19,47,25.40
2010,08,17,19,48,25.40
2010,08,17,19,49,25.30
2010,08,17,19,50,25.30
2010,08,17,19,51,25.30
2010,08,17,19,52,25.30
2010,08,17,19,53,25.30
2010,08,17,19,54,25.30
2010,08,17,19,55,25.30
2010,08,17,19,56,25.30
2010,08,17,19,57,25.30
2010,08,17,19,58,25.20
2010,08,17,19,59,25.20
2010,08,17,20,00,25.10
2010,08,17,20,01,25.10
2010,08,17,20,02,25.00
2010,08,17,20,03,24.90
2010,08,17,20,04,24.90
2010,08,17,20,05,24.90
2010,08,17,20,06,24.80
2010,08,17,20,07,24.80
2010,08,17,20,08,24.80
2010,08,17,20,09,24.80
2010,08,17,20,10,24.70
2010,08,17,20,11,24.70
2010,08,17,20,12,24.70
2010,08,17,20,13,24.60
2010,08,17,20,14,24.60
2010,08,17,20,15,24.60
2010,08,17,20,16,24.50
2010,08,17,20,17,24.40
2010,08,17,20,18,24.40
2010,08,17,20,19,24.30
2010,08,17,20,20,24.30
2010,08,17,20,21,24.30
2010,08,17,20,22,24.20
2010,08,17,20,23,24.20
2010,08,17,20,24,24.10
2010,08,17,20,25,24.10
2010,08,17,20,26,24.00
2010,08,17,20,27,24.00
2010,08,17,20,28,23.90
2010,08,17,20,29,23.80
2010,08,17,20,30,23.80
2010,08,17,20,31,23.70
2010,08,17,20,32,23.70
2010,08,17,20,33,23.70
2010,08,17,20,34,23.60
2010,08,17,20,35,23.60
2010,08,17,20,36,23.60
2010,08,17,20,37,23.50
2010,08,17,20,38,23.50
2010,08,17,20,39,23.40
2010,08,17,20,40,23.40
2010,08,17,20,41,23.40
2010,08,17,20,42,23.40
2010,08,17,20,43,23.40
2010,08,17,20,44,23.30
2010,08,17,20,45,23.30
2010,08,17,20,46,23.30
2010,08,17,20,47,23.30
2010,08,17,20,48,23.30
2010,08,17,20,49,23.20
2010,08,17,20,50,23.20
2010,08,17,20,51,23.20
2010,08,17,20,52,23.20
2010,08,17,20,53,23.10
2010,08,17,20,54,23.10
2010,08,17,20,55,23.10
2010,08,17,20,56,23.00
2010,08,17,20,57,23.00
2010,08,17,20,58,23.00
2010,08,17,20,59,22.90
2010,08,17,21,00,22.90
2010,08,17,21,01,22.90
2010,08,17,21,02,22.90
2010,08,17,21,03,22.90
2010,08,17,21,04,22.90
2010,08,17,21,05,22.90
2010,08,17,21,06,22.80
2010,08,17,21,07,22.80
2010,08,17,21,08,22.80
2010,08,17,21,09,22.80
2010,08,17,21,10,22.80
2010,08,17,21,11,22.80
2010,08,17,21,12,22.70
2010,08,17,21,13,22.70
2010,08,17,21,14,22.60
2010,08,17,21,15,22.60
2010,08,17,21,16,22.60
2010,08,17,21,17,22.50
2010,08,17,21,18,22.50
2010,08,17,21,19,22.50
2010,08,17,21,20,22.40
2010,08,17,21,21,22.40
2010,08,17,21,22,22.40
2010,08,17,21,23,22.40
2010,08,17,21,24,22.40
2010,08,17,21,25,22.40
2010,08,17,21,26,22.40
2010,08,17,21,27,22.40
2010,08,17,21,28,22.40
2010,08,17,21,29,22.40
2010,08,17,21,30,22.40
2010,08,17,21,31,22.40
2010,08,17,21,32,22.40
2010,08,17,21,33,22.40
2010,08,17,21,34,22.40
2010,08,17,21,35,22.40
2010,08,17,21,36,22.30
2010,08,17,21,37,22.30
2010,08,17,21,38,22.30
2010,08,17,21,39,22.30
2010,08,17,21,40,22.30
2010,08,17,21,41,22.20
2010,08,17,21,42,22.20
2010,08,17,21,43,22.20
2010,08,17,21,44,22.20
2010,08,17,21,45,22.20
2010,08,17,21,46,22.30
2010,08,17,21,47,22.30
2010,08,17,21,48,22.30
2010,08,17,21,49,22.30
2010,08,17,21,50,22.30
2010,08,17,21,51,22.20
2010,08,17,21,52,22.20
2010,08,17,21,53,22.20
2010,08,17,21,54,22.20
2010,08,17,21,55,22.20
2010,08,17,21,56,22.20
2010,08,17,21,57,22.30
2010,08,17,21,58,22.30
2010,08,17,21,59,22.30
2010,08,17,22,00,22.30
2010,08,17,22,01,22.30
2010,08,17,22,02,22.30
2010,08,17,22,03,22.30
2010,08,17,22,04,22.30
2010,08,17,22,05,22.30
2010,08,17,22,06,22.20
2010,08,17,22,07,22.20
2010,08,17,22,08,22.20
2010,08,17,22,09,22.20
2010,08,17,22,10,22.10
2010,08,17,22,11,22.10
2010,08,17,22,12,22.10
2010,08,17,22,13,22.00
2010,08,17,22,14,21.90
2010,08,17,22,15,21.90
2010,08,17,22,16,21.90
2010,08,17,22,17,21.80
2010,08,17,22,18,21.80
2010,08,17,22,19,21.80
2010,08,17,22,20,21.90
2010,08,17,22,21,21.90
2010,08,17,22,22,21.90
2010,08,17,22,23,21.90
2010,08,17,22,24,21.90
2010,08,17,22,25,21.90
2010,08,17,22,26,21.90
2010,08,17,22,27,21.90
2010,08,17,22,28,21.90
2010,08,17,22,29,22.00
2010,08,17,22,30,22.00
2010,08,17,22,31,22.10
2010,08,17,22,32,22.10
2010,08,17,22,33,22.10
2010,08,17,22,34,22.10
2010,08,17,22,35,22.10
2010,08,17,22,36,22.10
2010,08,17,22,37,22.20
2010,08,17,22,38,22.20
2010,08,17,22,39,22.20
2010,08,17,22,40,22.10
2010,08,17,22,41,22.10
2010,08,17,22,42,22.10
2010,08,17,22,43,22.00
2010,08,17,22,44,22.00
2010,08,17,22,45,21.90
2010,08,17,22,46,21.90
2010,08,17,22,47,21.80
2010,08,17,22,48,21.80
2010,08,17,22,49,21.80
2010,08,17,22,50,21.80
2010,08,17,22,51,21.80
2010,08,17,22,52,21.80
2010,08,17,22,53,21.90
2010,08,17,22,54,21.90
2010,08,17,22,55,22.00
2010,08,17,22,56,22.00
2010,08,17,22,57,22.10
2010,08,17,22,58,22.10
2010,08,17,22,59,22.10
2010,08,17,23,00,22.20
2010,08,17,23,01,22.20
2010,08,17,23,02,22.20
2010,08,17,23,03,22.30
2010,08,17,23,04,22.30
2010,08,17,23,05,22.30
2010,08,17,23,06,22.30
2010,08,17,23,07,22.30
2010,08,17,23,08,22.30
2010,08,17,23,09,22.20
2010,08,17,23,10,22.20
2010,08,17,23,11,22.10
2010,08,17,23,12,22.00
2010,08,17,23,13,21.90
2010,08,17,23,14,21.80
2010,08,17,23,15,21.80
2010,08,17,23,16,21.70
2010,08,17,23,17,21.60
2010,08,17,23,18,21.50
2010,08,17,23,19,21.40
2010,08,17,23,20,21.40
2010,08,17,23,21,21.30
2010,08,17,23,22,21.30
2010,08,17,23,23,21.20
2010,08,17,23,24,21.10
2010,08,17,23,25,21.00
2010,08,17,23,26,20.90
2010,08,17,23,27,20.80
2010,08,17,23,28,20.80
2010,08,17,23,29,20.80
2010,08,17,23,30,20.80
2010,08,17,23,31,20.80
2010,08,17,23,32,20.80
2010,08,17,23,33,20.80
2010,08,17,23,34,20.80
2010,08,17,23,35,20.80
2010,08,17,23,36,20.80
2010,08,17,23,37,20.90
2010,08,17,23,38,21.00
2010,08,17,23,39,21.10
2010,08,17,23,40,21.20
2010,08,17,23,41,21.30
2010,08,17,23,42,21.30
2010,08,17,23,43,21.40
2010,08,17,23,44,21.40
2010,08,17,23,45,21.40
2010,08,17,23,46,21.30
2010,08,17,23,47,21.30
2010,08,17,23,48,21.30
2010,08,17,23,49,21.30
2010,08,17,23,50,21.30